When you browse on this site, cookies collect data to enhance your experience and personalize the content and advertising you see.
Visit our Privacy Policy to learn more. By continuing to use the site, you agree to this use of cookies and data.
  • In Lithuania
  • List of Countries
  • For 7 days
  • Water Temperature
  • Satellite Maps
  • Weather Map
  • Weather Widgets
  • user-avatar
    Login

    Hourly Weather Liski

    Today, 17 July, Wednesday

    Time Temperature Precipitation Wind Pressure Humidity
    00:00 +12°C° 0.1 mm 3 mps 744 mmHg 90%
    01:00 +11°C° 0.1 mm 3 mps 744 mmHg 93%
    02:00 +11°C° 0.1 mm 3 mps 744 mmHg 97%
    03:00 +12°C° 0 mm 2 mps 744 mmHg 96%
    04:00 +10°C° 0 mm 2 mps 744 mmHg 96%
    05:00 +10°C° 0 mm 2 mps 743 mmHg 96%
    06:00 +12°C° 0.2 mm 2 mps 743 mmHg 92%
    07:00 +13°C° 0.2 mm 2 mps 743 mmHg 88%
    08:00 +14°C° 0.2 mm 2 mps 743 mmHg 83%
    09:00 +14°C° 0.8 mm 2 mps 743 mmHg 85%
    10:00 +14°C° 0.8 mm 2 mps 743 mmHg 86%
    11:00 +14°C° 0.8 mm 2 mps 743 mmHg 87%
    12:00 +15°C° 0.2 mm 2 mps 743 mmHg 82%
    13:00 +16°C° 0.2 mm 3 mps 743 mmHg 77%
    14:00 +18°C° 0.2 mm 3 mps 743 mmHg 71%
    15:00 +18°C° 0.3 mm 3 mps 743 mmHg 70%
    16:00 +19°C° 0.3 mm 4 mps 743 mmHg 69%
    17:00 +19°C° 0.3 mm 4 mps 743 mmHg 68%
    18:00 +18°C° 0.3 mm 4 mps 743 mmHg 74%
    19:00 +17°C° 0.3 mm 3 mps 743 mmHg 79%
    20:00 +16°C° 0.3 mm 3 mps 743 mmHg 85%
    21:00 +14°C° 0 mm 3 mps 743 mmHg 88%
    22:00 +13°C° 0 mm 3 mps 743 mmHg 91%
    23:00 +12°C° 0 mm 3 mps 744 mmHg 94%

    Tomorrow, 18 July, Thursday

    Time Temperature Precipitation Wind Pressure Humidity
    00:00 +12°C° 0 mm 3 mps 744 mmHg 95%
    01:00 +12°C° 0 mm 3 mps 744 mmHg 96%
    02:00 +11°C° 0 mm 4 mps 744 mmHg 97%
    03:00 +12°C° 0 mm 4 mps 744 mmHg 96%
    04:00 +12°C° 0 mm 4 mps 744 mmHg 96%
    05:00 +12°C° 0 mm 4 mps 744 mmHg 95%
    06:00 +13°C° 0 mm 4 mps 745 mmHg 93%
    07:00 +13°C° 0 mm 4 mps 745 mmHg 90%
    08:00 +14°C° 0 mm 4 mps 745 mmHg 88%
    09:00 +15°C° 0 mm 4 mps 745 mmHg 83%
    10:00 +18°C° 0 mm 4 mps 745 mmHg 77%
    11:00 +19°C° 0 mm 4 mps 746 mmHg 71%
    12:00 +20°C° 0 mm 5 mps 746 mmHg 67%
    13:00 +21°C° 0 mm 5 mps 745 mmHg 62%
    14:00 +22°C° 0 mm 5 mps 745 mmHg 57%
    15:00 +23°C° 0 mm 5 mps 745 mmHg 56%
    16:00 +23°C° 0 mm 5 mps 745 mmHg 56%
    17:00 +23°C° 0 mm 5 mps 745 mmHg 56%
    18:00 +21°C° 0.1 mm 4 mps 745 mmHg 63%
    19:00 +20°C° 0.1 mm 3 mps 746 mmHg 71%
    20:00 +18°C° 0.1 mm 3 mps 746 mmHg 78%
    21:00 +17°C° 0 mm 3 mps 746 mmHg 81%
    22:00 +16°C° 0 mm 2 mps 747 mmHg 84%
    23:00 +15°C° 0 mm 2 mps 747 mmHg 87%

    Day after tomorrow, 19 July, Friday

    Time Temperature Precipitation Wind Pressure Humidity
    00:00 +15°C° 0 mm 2 mps 747 mmHg 89%
    01:00 +14°C° 0 mm 2 mps 747 mmHg 90%
    02:00 +14°C° 0 mm 2 mps 747 mmHg 92%
    03:00 +14°C° 0 mm 1 mps 747 mmHg 92%
    04:00 +14°C° 0 mm 1 mps 747 mmHg 93%
    05:00 +13°C° 0 mm 1 mps 747 mmHg 93%
    06:00 +15°C° 0 mm 1 mps 748 mmHg 87%
    07:00 +18°C° 0 mm 1 mps 748 mmHg 80%
    08:00 +19°C° 0 mm 2 mps 748 mmHg 74%
    09:00 +20°C° 0.2 mm 2 mps 748 mmHg 68%
    10:00 +21°C° 0.2 mm 2 mps 748 mmHg 63%
    11:00 +24°C° 0.2 mm 3 mps 748 mmHg 58%
    12:00 +24°C° 0.2 mm 3 mps 748 mmHg 56%
    13:00 +24°C° 0.2 mm 3 mps 748 mmHg 55%
    14:00 +25°C° 0.2 mm 3 mps 748 mmHg 53%
    15:00 +25°C° 0 mm 3 mps 748 mmHg 52%
    16:00 +25°C° 0 mm 2 mps 748 mmHg 51%
    17:00 +25°C° 0 mm 2 mps 748 mmHg 49%
    18:00 +24°C° 0 mm 2 mps 748 mmHg 55%
    19:00 +23°C° 0 mm 2 mps 748 mmHg 60%
    20:00 +21°C° 0 mm 1 mps 748 mmHg 65%
    21:00 +20°C° 0 mm 1 mps 748 mmHg 68%
    22:00 +19°C° 0 mm 1 mps 748 mmHg 71%
    23:00 +18°C° 0 mm 1 mps 748 mmHg 73%

    20 July, Saturday

    Time Temperature Precipitation Wind Pressure Humidity
    00:00 +18°C° 0 mm 1 mps 748 mmHg 75%
    01:00 +16°C° 0 mm 1 mps 748 mmHg 77%
    02:00 +15°C° 0 mm 0 mps 748 mmHg 78%
    03:00 +15°C° 0 mm 0 mps 748 mmHg 79%
    04:00 +15°C° 0 mm 0 mps 749 mmHg 80%
    05:00 +14°C° 0 mm 0 mps 749 mmHg 80%
    06:00 +16°C° 0 mm 0 mps 749 mmHg 75%
    07:00 +18°C° 0 mm 0 mps 749 mmHg 69%
    08:00 +20°C° 0 mm 0 mps 749 mmHg 64%
    09:00 +22°C° 0 mm 0 mps 749 mmHg 59%
    10:00 +23°C° 0 mm 0 mps 749 mmHg 55%
    11:00 +25°C° 0 mm 0 mps 750 mmHg 51%
    12:00 +27°C° 0.1 mm 1 mps 750 mmHg 50%
    13:00 +27°C° 0.1 mm 1 mps 750 mmHg 50%
    14:00 +27°C° 0.1 mm 1 mps 750 mmHg 49%
    15:00 +27°C° 0.1 mm 1 mps 749 mmHg 50%
    16:00 +27°C° 0.1 mm 1 mps 749 mmHg 51%
    17:00 +27°C° 0.1 mm 1 mps 749 mmHg 52%
    18:00 +26°C° 0 mm 1 mps 749 mmHg 58%
    19:00 +24°C° 0 mm 1 mps 749 mmHg 63%
    20:00 +23°C° 0 mm 1 mps 750 mmHg 68%
    21:00 +22°C° 0 mm 1 mps 750 mmHg 72%
    22:00 +21°C° 0 mm 1 mps 750 mmHg 76%
    23:00 +19°C° 0 mm 1 mps 750 mmHg 81%

    21 July, Sunday

    Time Temperature Precipitation Wind Pressure Humidity
    00:00 +19°C° 0 mm 1 mps 750 mmHg 82%
    01:00 +19°C° 0 mm 1 mps 750 mmHg 84%
    02:00 +17°C° 0 mm 2 mps 750 mmHg 85%
    03:00 +17°C° 0 mm 2 mps 750 mmHg 86%
    04:00 +17°C° 0 mm 2 mps 750 mmHg 88%
    05:00 +16°C° 0 mm 2 mps 750 mmHg 89%
    06:00 +18°C° 0 mm 2 mps 750 mmHg 83%
    07:00 +20°C° 0 mm 2 mps 750 mmHg 77%
    08:00 +23°C° 0 mm 2 mps 750 mmHg 71%
    09:00 +24°C° 0 mm 2 mps 750 mmHg 66%
    10:00 +26°C° 0 mm 2 mps 750 mmHg 60%
    11:00 +27°C° 0 mm 2 mps 750 mmHg 55%
    12:00 +28°C° 0 mm 2 mps 750 mmHg 52%
    13:00 +28°C° 0 mm 2 mps 750 mmHg 50%
    14:00 +29°C° 0 mm 2 mps 750 mmHg 48%
    15:00 +28°C° 0.1 mm 2 mps 750 mmHg 53%
    16:00 +28°C° 0.1 mm 2 mps 750 mmHg 58%
    17:00 +27°C° 0.1 mm 2 mps 750 mmHg 63%
    18:00 +26°C° 0.8 mm 2 mps 750 mmHg 71%
    19:00 +24°C° 0.8 mm 1 mps 749 mmHg 78%
    20:00 +22°C° 0.8 mm 1 mps 749 mmHg 86%
    21:00 +21°C° 0.5 mm 1 mps 749 mmHg 87%
    22:00 +21°C° 0.5 mm 1 mps 749 mmHg 88%
    23:00 +18°C° 0.5 mm 0 mps 749 mmHg 88%

    22 July, Monday

    Time Temperature Precipitation Wind Pressure Humidity
    00:00 +18°C° 0 mm 0 mps 749 mmHg 89%
    01:00 +20°C° 0 mm 1 mps 749 mmHg 90%
    02:00 +20°C° 0 mm 1 mps 749 mmHg 90%
    03:00 +19°C° 0 mm 1 mps 749 mmHg 90%
    04:00 +19°C° 0 mm 1 mps 749 mmHg 91%
    05:00 +19°C° 0 mm 1 mps 749 mmHg 91%
    06:00 +21°C° 0 mm 1 mps 749 mmHg 87%
    07:00 +22°C° 0 mm 1 mps 749 mmHg 84%
    08:00 +23°C° 0 mm 1 mps 749 mmHg 80%
    09:00 +25°C° 0 mm 2 mps 749 mmHg 74%
    10:00 +26°C° 0 mm 2 mps 749 mmHg 68%
    11:00 +27°C° 0 mm 3 mps 749 mmHg 62%
    12:00 +28°C° 0.2 mm 3 mps 749 mmHg 60%
    13:00 +28°C° 0.2 mm 4 mps 749 mmHg 58%
    14:00 +29°C° 0.2 mm 4 mps 749 mmHg 56%
    15:00 +28°C° 0.8 mm 4 mps 749 mmHg 61%
    16:00 +27°C° 0.8 mm 4 mps 749 mmHg 65%
    17:00 +27°C° 0.8 mm 5 mps 749 mmHg 70%
    18:00 +25°C° 0.2 mm 4 mps 749 mmHg 74%
    19:00 +24°C° 0.2 mm 3 mps 749 mmHg 79%
    20:00 +22°C° 0.2 mm 3 mps 749 mmHg 83%
    21:00 +21°C° 0.1 mm 3 mps 749 mmHg 86%
    22:00 +20°C° 0.1 mm 3 mps 749 mmHg 89%
    23:00 +19°C° 0.1 mm 4 mps 749 mmHg 92%
    Show more